SCP
0 0 0 0 0 0 0 0 0 0 0 0 -0 0 -0 -0 0 -0 -0 -0 -0 -0 -0 0 0 0 0 -0 -0 0 0 0 0 0 0 0 0 0 0 0 0 0 0 0
0 0 0 0 0 0 0 0 0 0 0 0 0 0 0 0 0 -0 -0 -0 -0 -0 -0 -0 -0 0 0 -0 -0 0 0 0 0 0 0 0 -0 0 0 0 0 0 0 0
0 0 0 -0 0 0 0 0 0 0 0 0 0 0 0 0 0 0 0 0 -0 -0 -0 -0 -0 0 0 -0 -0 -0 0 0 0 0 0 0 0 0 0 0 0 0 0 0
0 0 0 0 0 0 0 0 0 0 0 0 0 -0 0 0 0 0 0 0 -0 0 0 -0 0 0 -0 0 -0 -0 0 0 0 0 0 0 0 0 0 0 0 0 0 0
0 0 0 0 0 0 0 0 0 0 0 0 0 0 0 0 0 -0 0 0 -0 0 0 0 0 0 0 0 0 0 0 0 0 0 0 0 0 0 0 0 0 0 0 0
0 0 0 0 0 0 0 0 0 0 0 0 0 0 -0 0 0 0 0 0 0 0 0 0 0 0 0 0 0 -0 0 0 0 0 0 0 0 0 -0 -0 -0 -0 -0 -0
0 0 0 0 0 0 0 0 0 0 0 0 0 0 0 0 0 0 0 0 0 0 0 0 0 0 0 0 -0 -0 0 0 0 -0 -0 -0 0 -0 0 0 0 -0 -0 -0
0 0 0 0 0 0 0 0 0 0 0 0 0 0 0 0 0 0 0 0 0 0 0 0 0 0 0 0 0 0 0 0 0 0 0 0 0 -0 -0 0 0 -0 -0 -0
0 0 0 0 0 0 0 0 0 0 0 0 0 0 0 0 0 0 0 0 0 0 0 0 0 0 0 0 0 0 0 0 0 0 0 0 0 -0 -0 -0 -0 -0 -0 -0
0 0 0 0 0 0 0 0 0 0 0 0 0 0 0 0 0 0 0 0 0 0 0 0 0 0 0 0 0 0 0 0 0 0 0 0 0 0 0 0 -0 -0 -0 -0
0 0 0 0 0 0 0 0 0 0 0 0 0 0 0 0 0 0 0 0 0 0 0 0 0 0 0 0 0 0 0 0 0 0 0 0 0 0 0 0 0 0 0 0
0 0 0 0 -0 0 0 0 0 0 0 0 0 0 0 0 0 0 0 0 0 0 0 0 0 0 0 0 0 0 0 0 0 0 0 0 0 0 0 0 0 0 0 0
0 0 0 0 0 0 0 0 0 0 0 0 0 0 0 0 0 0 0 0 0 0 0 0 0 0 0 0 0 0 0 0 0 0 0 0 0 0 0 -0 -0 -0 0 0
0 0 1 0 0 0 0 0 0 0 0 0 0 0 0 0 0 0 0 0 0 0 0 0 0 0 0 0 0 0 0 0 0 0 0 0 0 0 0 0 0 -0 -0 0
0 0 0 0 0 0 0 0 0 0 0 0 0 0 0 0 0 0 0 0 0 0 0 0 0 0 0 0 0 0 0 0 0 0 0 0 0 0 0 0 0 -0 0 0
0 0 0 0 0 0 0 0 0 0 0 0 0 0 0 0 0 0 0 0 0 0 0 0 0 0 0 0 0 0 0 0 0 0 0 0 0 0 0 0 0 0 0 0
0 0 0 0 0 0 0 0 0 0 0 0 0 0 0 0 0 0 0 0 0 0 0 0 0 0 0 0 0 0 0 0 0 0 0 0 0 0 0 0 0 0 0 0
0 0 0 0 0 0 0 0 0 0 0 0 0 0 0 0 0 0 0 0 0 0 0 0 0 -0 0 0 0 0 0 0 0 0 0 0 0 0 0 0 0 0 0 0
0 0 0 0 0 0 0 0 0 0 0 0 0 0 0 0 0 0 0 0 0 0 0 0 0 0 0 0 0 0 0 0 0 0 0 0 0 0 0 0 0 0 0 0
0 0 0 0 0 0 0 0 0 0 0 0 0 0 0 0 0 0 0 0 0 0 0 0 0 0 0 0 0 0 0 0 0 0 0 0 0 0 0 0 0 0 0 0
0 0 0 0 0 0 0 0 0 0 0 0 0 0 0 0 0 0 0 0 0 0 0 0 0 0 0 0 0 0 0 0 0 0 0 0 0 0 0 0 0 0 0 0
0 0 0 0 0 0 0 0 0 0 0 0 0 0 0 0 0 0 0 0 0 0 0 0 0 0 0 0 0 0 0 0 0 0 0 0 0 0 0 0 0 0 0 0
0 0 0 0 0 0 0 0 0 0 0 0 0 0 0 -0 0 0 0 0 0 0 0 0 0 0 0 0 0 0 0 0 0 0 0 0 0 0 0 0 0 0 0 0
0 0 0 0 0 0 0 0 0 0 0 0 0 0 0 0 0 0 0 0 0 0 0 0 0 0 0 0 0 0 0 0 0 0 0 0 0 0 0 0 0 0 0 0
0 0 0 0 0 0 0 0 0 0 0 0 0 0 0 0 0 0 0 0 0 0 0 0 0 0 0 0 0 0 0 0 0 0 0 0 0 0 0 0 0 0 0 0
0 0 0 0 0 0 0 0 0 0 0 0 0 0 0 0 0 0 0 0 0 0 0 0 0 0 0 0 0 0 0 0 0 0 0 0 0 0 0 0 0 0 0 0
0 0 0 0 0 0 0 0 0 0 0 0 0 0 0 0 0 0 0 0 0 0 0 0 0 0 0 0 0 0 0 0 0 0 0 0 0 0 0 0 0 0 0 0
Wind_Speed_500mb
10 19 21 26 16 23 19 17 16 16 18 14 7 8 15 20 32 46 59 72 71 63 60 58 48 42 32 23 22 22 17 11 3 8 22 24 24 23 22 20 18 19 20 22
15 18 25 22 32 30 33 6 4 12 10 14 11 13 11 24 42 54 62 79 80 70 59 60 58 47 37 30 25 25 21 15 11 10 21 29 26 26 22 23 20 19 19 17
10 11 14 33 31 26 15 10 18 15 18 15 10 16 27 27 40 52 61 69 87 80 69 62 63 52 45 35 28 26 24 23 18 13 20 27 30 28 25 23 22 20 18 14
7 11 16 9 16 33 38 22 14 7 18 22 24 39 36 15 20 44 54 56 80 87 73 64 59 56 46 40 33 28 26 26 23 17 22 26 29 29 30 28 25 23 21 18
10 7 7 2 10 17 17 22 28 20 11 20 23 13 27 28 30 37 51 48 58 84 83 70 64 60 55 50 41 33 30 30 26 21 23 25 26 27 28 29 27 23 19 17
6 13 20 13 13 13 10 13 20 32 19 18 26 8 19 41 39 44 43 58 45 63 86 79 69 66 63 58 53 45 37 31 29 25 24 24 24 24 24 24 24 25 24 23
4 7 11 11 17 30 16 15 24 56 52 38 15 42 55 41 41 35 37 49 52 52 66 81 78 74 73 66 64 54 42 35 34 32 29 26 26 27 25 25 26 24 23 22
4 6 16 15 14 23 16 20 24 54 54 65 75 63 56 43 35 28 31 37 45 45 55 68 82 80 82 77 62 61 54 47 41 37 34 34 35 32 31 30 28 28 27 25
18 12 8 55 39 59 41 32 30 48 54 62 61 61 48 49 49 41 32 31 33 37 46 59 69 86 90 79 69 66 65 59 52 45 43 40 42 42 40 38 37 34 32 31
8 11 12 51 29 49 30 31 31 21 29 38 44 48 50 52 44 39 32 27 30 44 49 59 62 77 94 81 76 70 73 69 63 58 54 50 49 50 49 48 46 44 42 40
5 4 4 21 61 44 53 30 31 28 22 31 40 39 38 35 34 37 32 31 34 41 45 52 58 68 85 94 84 83 74 76 73 70 64 58 56 55 58 54 50 45 41 39
16 23 23 31 66 65 51 62 48 27 27 40 38 29 27 31 35 33 25 25 32 46 50 48 54 71 80 87 95 94 86 82 83 80 78 73 67 63 60 56 51 51 50 55
11 49 53 47 64 74 68 45 31 26 35 37 36 31 25 20 24 32 29 24 29 35 45 54 59 66 77 84 86 100 101 89 87 86 85 87 83 77 71 64 60 67 68 72
52 59 27 34 35 64 62 47 37 31 32 35 31 33 32 28 20 10 19 29 20 28 41 45 48 49 57 73 81 89 100 101 94 91 91 87 92 90 82 75 70 67 66 71
48 56 68 51 31 51 50 47 44 38 35 31 25 17 25 30 33 29 16 16 16 28 41 39 38 37 45 55 67 81 94 99 99 98 96 94 89 90 91 85 80 70 73 75
41 40 53 50 57 58 60 49 42 40 30 20 18 21 17 25 22 28 29 28 20 14 27 39 33 40 38 36 58 72 85 92 97 96 94 96 98 97 92 86 82 84 87 84
27 43 60 67 58 55 55 47 38 32 24 22 19 20 26 25 29 17 21 24 26 19 13 28 19 50 36 47 50 64 77 88 89 93 94 90 89 91 93 90 89 78 68 54
25 36 40 53 49 45 38 31 27 24 19 12 11 12 20 32 33 32 30 26 24 16 37 29 40 67 74 67 56 58 65 75 81 84 84 82 80 77 77 72 58 46 30 20
27 21 21 23 35 37 36 33 28 22 18 12 5 10 7 3 13 23 22 21 26 20 24 20 12 18 23 35 49 55 60 62 63 75 77 74 65 58 54 45 37 41 38 28
37 37 35 49 51 51 51 49 41 37 33 26 17 11 11 13 16 9 10 7 7 18 16 11 11 11 16 27 39 48 48 47 51 56 54 45 45 53 65 59 44 33 23 13
28 34 42 43 42 42 41 35 25 25 20 20 18 21 20 16 19 8 10 10 12 1 4 12 11 19 29 34 38 40 45 46 45 48 60 69 66 57 42 31 28 24 33 39
34 27 28 30 26 28 26 23 22 19 12 10 10 10 10 11 9 16 17 23 32 35 35 28 31 34 30 36 47 55 58 65 68 71 56 45 45 49 50 48 54 52 58 48
43 38 31 26 21 13 10 11 16 12 3 3 5 3 7 11 6 9 21 18 21 18 17 21 31 41 43 47 49 45 38 38 49 56 57 61 62 60 63 66 64 59 52 52
31 29 26 24 15 7 8 11 15 16 15 13 18 18 17 23 24 23 21 26 31 25 16 16 35 34 41 51 57 62 65 64 59 53 55 63 65 66 69 67 65 64 62 58
30 27 26 23 21 18 11 4 11 9 11 16 33 38 32 29 18 17 14 13 26 19 13 25 24 29 28 35 47 50 51 53 55 67 82 79 77 75 71 69 69 66 62 57
25 26 28 27 26 24 20 14 10 5 2 7 26 43 44 35 22 22 20 10 20 22 21 9 9 12 11 21 30 42 48 64 80 85 81 76 75 75 75 73 70 64 59 52
26 26 24 22 21 20 19 17 15 10 6 3 7 19 29 32 25 29 32 33 29 29 30 24 29 25 25 24 34 54 77 87 86 81 76 74 76 77 75 72 66 59 52 47
Wind_Direction_500mb
192 196 191 211 193 181 190 191 169 214 205 229 178 183 194 185 189 190 200 206 201 199 204 203 203 203 202 197 204 211 210 217 216 200 188 182 177 175 167 154 148 146 135 134
214 200 193 214 216 194 207 124 94 147 226 202 175 175 196 172 192 196 201 210 208 205 204 205 206 205 202 198 201 211 210 210 215 210 189 186 184 182 178 178 170 162 154 142
220 185 132 244 208 190 198 187 161 187 212 155 176 205 227 226 209 215 211 210 215 207 207 206 204 203 203 198 200 208 204 207 216 208 188 185 192 195 195 194 192 189 190 200
156 114 207 270 210 185 198 200 192 165 174 179 198 217 237 223 266 232 223 213 218 218 211 211 207 203 203 200 201 203 202 206 212 208 191 187 189 193 199 204 207 210 211 216
148 209 292 232 148 144 158 226 198 198 158 192 201 215 249 231 267 278 247 233 227 221 217 211 207 201 202 201 202 202 203 202 209 213 199 192 189 192 195 199 202 202 195 182
168 176 217 201 202 150 79 249 199 195 187 168 145 183 230 225 248 278 251 240 229 224 222 214 211 205 201 203 203 202 201 200 202 209 208 196 185 182 179 177 175 173 170 165
166 217 275 249 146 138 147 232 185 192 202 176 184 218 228 245 260 272 259 244 232 224 222 220 210 207 205 204 206 206 196 198 202 204 204 197 187 181 175 173 174 173 171 171
117 170 240 168 128 158 199 221 219 204 206 201 216 226 229 237 242 256 243 222 224 222 223 220 212 209 209 207 207 207 202 201 203 203 202 198 195 187 185 186 185 182 180 180
189 203 223 171 173 198 187 198 199 208 208 215 219 226 223 241 241 246 227 208 216 225 220 218 211 211 211 210 206 206 207 204 208 205 204 202 202 197 197 197 196 195 198 202
129 209 197 192 198 202 188 191 214 224 212 214 224 233 237 241 244 223 220 196 221 218 217 218 215 212 217 212 207 208 208 206 208 211 209 207 208 207 206 206 207 209 216 224
221 331 96 215 202 203 209 201 191 187 214 235 224 229 233 242 231 225 228 221 217 222 223 223 224 219 215 217 211 209 211 209 208 212 214 212 214 215 215 216 219 223 231 237
217 174 168 200 201 208 211 217 217 232 219 215 221 232 238 244 241 236 225 236 236 226 224 223 226 223 218 218 215 212 211 213 213 211 214 218 216 220 225 230 233 236 242 249
219 184 192 202 208 212 214 207 210 230 213 210 223 226 237 217 217 224 226 233 236 241 238 227 220 223 222 221 220 217 216 215 216 216 217 221 222 222 224 227 234 243 251 259
286 189 175 195 203 211 213 213 214 218 202 208 211 211 209 201 202 254 261 236 227 234 235 225 222 227 230 224 224 224 221 221 219 218 220 223 227 229 230 232 234 243 253 260
254 197 202 193 190 180 182 179 178 183 192 192 196 213 219 232 248 263 253 239 236 247 231 226 225 235 237 232 229 228 225 222 223 226 224 226 228 232 234 236 240 244 252 258
221 188 171 164 170 166 169 180 180 185 194 200 216 224 245 246 239 249 253 265 253 267 234 213 231 238 225 233 233 232 232 230 223 226 227 229 232 234 237 238 242 247 252 260
177 130 141 140 158 158 166 174 178 177 196 219 231 225 238 248 238 253 247 252 252 266 275 230 221 230 237 258 251 234 231 229 227 224 231 232 232 234 237 240 240 243 251 259
107 120 132 142 150 150 156 166 175 184 204 241 265 262 245 245 243 249 256 273 255 236 282 273 230 228 232 250 242 232 230 227 222 222 226 231 233 234 236 236 232 234 232 177
121 107 121 124 136 144 148 154 157 156 150 153 134 72 73 242 246 237 235 254 225 214 222 251 270 236 227 225 220 218 217 219 216 218 220 221 221 223 224 218 184 153 142 138
87 106 126 120 113 118 119 120 120 122 110 99 89 83 83 73 67 138 139 173 200 210 193 198 181 173 191 199 203 204 203 206 203 202 202 199 189 168 153 145 142 142 143 155
72 100 104 103 100 101 100 107 107 106 109 104 73 64 62 46 52 111 131 125 96 340 153 138 155 180 173 175 176 176 184 170 174 163 150 144 141 143 151 153 160 161 137 119
88 96 115 118 112 106 106 101 88 81 80 49 45 55 47 65 62 67 100 127 128 116 106 114 142 151 159 165 153 148 148 145 146 149 161 189 200 191 170 157 145 132 135 135
82 87 89 89 85 80 101 77 41 32 57 319 292 267 144 134 135 89 95 130 178 160 139 152 153 152 153 159 162 162 164 163 163 166 178 174 163 155 149 143 139 143 143 144
68 68 67 65 58 45 12 343 290 305 308 235 220 202 178 157 146 139 138 125 128 102 101 141 176 169 167 168 163 163 163 166 168 158 167 160 151 146 142 144 143 143 141 139
60 58 57 50 46 54 51 0 295 310 291 260 218 201 204 203 209 214 205 173 148 120 76 87 128 180 185 183 179 178 172 169 165 163 156 149 145 146 146 146 145 143 139 135
54 59 57 55 52 44 39 30 21 45 113 215 213 209 203 215 230 202 191 177 189 190 215 160 103 105 155 165 171 168 164 161 156 154 151 147 148 149 149 146 142 139 136 132
62 65 62 50 39 31 28 28 30 31 54 115 207 220 220 226 208 196 195 197 196 184 193 204 197 199 196 195 171 161 159 159 159 155 152 151 151 148 145 143 140 137 132 128
Wind_Speed_850mb
10 19 21 26 16 23 19 17 16 16 18 14 7 8 15 20 32 46 59 72 71 63 60 58 48 42 32 23 22 22 17 11 3 8 22 24 24 23 22 20 18 19 20 22
15 18 25 22 32 30 33 6 4 12 10 14 11 13 11 24 42 54 62 79 80 70 59 60 58 47 37 30 25 25 21 15 11 10 21 29 26 26 22 23 20 19 19 17
10 11 14 33 31 26 15 10 18 15 18 15 10 16 27 27 40 52 61 69 87 80 69 62 63 52 45 35 28 26 24 23 18 13 20 27 30 28 25 23 22 20 18 14
7 11 16 9 16 33 38 22 14 7 18 22 24 39 36 15 20 44 54 56 80 87 73 64 59 56 46 40 33 28 26 26 23 17 22 26 29 29 30 28 25 23 21 18
10 7 7 2 10 17 17 22 28 20 11 20 23 13 27 28 30 37 51 48 58 84 83 70 64 60 55 50 41 33 30 30 26 21 23 25 26 27 28 29 27 23 19 17
6 13 20 13 13 13 10 13 20 32 19 18 26 8 19 41 39 44 43 58 45 63 86 79 69 66 63 58 53 45 37 31 29 25 24 24 24 24 24 24 24 25 24 23
4 7 11 11 17 30 16 15 24 56 52 38 15 42 55 41 41 35 37 49 52 52 66 81 78 74 73 66 64 54 42 35 34 32 29 26 26 27 25 25 26 24 23 22
4 6 16 15 14 23 16 20 24 54 54 65 75 63 56 43 35 28 31 37 45 45 55 68 82 80 82 77 62 61 54 47 41 37 34 34 35 32 31 30 28 28 27 25
18 12 8 55 39 59 41 32 30 48 54 62 61 61 48 49 49 41 32 31 33 37 46 59 69 86 90 79 69 66 65 59 52 45 43 40 42 42 40 38 37 34 32 31
8 11 12 51 29 49 30 31 31 21 29 38 44 48 50 52 44 39 32 27 30 44 49 59 62 77 94 81 76 70 73 69 63 58 54 50 49 50 49 48 46 44 42 40
5 4 4 21 61 44 53 30 31 28 22 31 40 39 38 35 34 37 32 31 34 41 45 52 58 68 85 94 84 83 74 76 73 70 64 58 56 55 58 54 50 45 41 39
16 23 23 31 66 65 51 62 48 27 27 40 38 29 27 31 35 33 25 25 32 46 50 48 54 71 80 87 95 94 86 82 83 80 78 73 67 63 60 56 51 51 50 55
11 49 53 47 64 74 68 45 31 26 35 37 36 31 25 20 24 32 29 24 29 35 45 54 59 66 77 84 86 100 101 89 87 86 85 87 83 77 71 64 60 67 68 72
52 59 27 34 35 64 62 47 37 31 32 35 31 33 32 28 20 10 19 29 20 28 41 45 48 49 57 73 81 89 100 101 94 91 91 87 92 90 82 75 70 67 66 71
48 56 68 51 31 51 50 47 44 38 35 31 25 17 25 30 33 29 16 16 16 28 41 39 38 37 45 55 67 81 94 99 99 98 96 94 89 90 91 85 80 70 73 75
41 40 53 50 57 58 60 49 42 40 30 20 18 21 17 25 22 28 29 28 20 14 27 39 33 40 38 36 58 72 85 92 97 96 94 96 98 97 92 86 82 84 87 84
27 43 60 67 58 55 55 47 38 32 24 22 19 20 26 25 29 17 21 24 26 19 13 28 19 50 36 47 50 64 77 88 89 93 94 90 89 91 93 90 89 78 68 54
25 36 40 53 49 45 38 31 27 24 19 12 11 12 20 32 33 32 30 26 24 16 37 29 40 67 74 67 56 58 65 75 81 84 84 82 80 77 77 72 58 46 30 20
27 21 21 23 35 37 36 33 28 22 18 12 5 10 7 3 13 23 22 21 26 20 24 20 12 18 23 35 49 55 60 62 63 75 77 74 65 58 54 45 37 41 38 28
37 37 35 49 51 51 51 49 41 37 33 26 17 11 11 13 16 9 10 7 7 18 16 11 11 11 16 27 39 48 48 47 51 56 54 45 45 53 65 59 44 33 23 13
28 34 42 43 42 42 41 35 25 25 20 20 18 21 20 16 19 8 10 10 12 1 4 12 11 19 29 34 38 40 45 46 45 48 60 69 66 57 42 31 28 24 33 39
34 27 28 30 26 28 26 23 22 19 12 10 10 10 10 11 9 16 17 23 32 35 35 28 31 34 30 36 47 55 58 65 68 71 56 45 45 49 50 48 54 52 58 48
43 38 31 26 21 13 10 11 16 12 3 3 5 3 7 11 6 9 21 18 21 18 17 21 31 41 43 47 49 45 38 38 49 56 57 61 62 60 63 66 64 59 52 52
31 29 26 24 15 7 8 11 15 16 15 13 18 18 17 23 24 23 21 26 31 25 16 16 35 34 41 51 57 62 65 64 59 53 55 63 65 66 69 67 65 64 62 58
30 27 26 23 21 18 11 4 11 9 11 16 33 38 32 29 18 17 14 13 26 19 13 25 24 29 28 35 47 50 51 53 55 67 82 79 77 75 71 69 69 66 62 57
25 26 28 27 26 24 20 14 10 5 2 7 26 43 44 35 22 22 20 10 20 22 21 9 9 12 11 21 30 42 48 64 80 85 81 76 75 75 75 73 70 64 59 52
26 26 24 22 21 20 19 17 15 10 6 3 7 19 29 32 25 29 32 33 29 29 30 24 29 25 25 24 34 54 77 87 86 81 76 74 76 77 75 72 66 59 52 47
Wind_Direction_850mb
192 196 191 211 193 181 190 191 169 214 205 229 178 183 194 185 189 190 200 206 201 199 204 203 203 203 202 197 204 211 210 217 216 200 188 182 177 175 167 154 148 146 135 134
214 200 193 214 216 194 207 124 94 147 226 202 175 175 196 172 192 196 201 210 208 205 204 205 206 205 202 198 201 211 210 210 215 210 189 186 184 182 178 178 170 162 154 142
220 185 132 244 208 190 198 187 161 187 212 155 176 205 227 226 209 215 211 210 215 207 207 206 204 203 203 198 200 208 204 207 216 208 188 185 192 195 195 194 192 189 190 200
156 114 207 270 210 185 198 200 192 165 174 179 198 217 237 223 266 232 223 213 218 218 211 211 207 203 203 200 201 203 202 206 212 208 191 187 189 193 199 204 207 210 211 216
148 209 292 232 148 144 158 226 198 198 158 192 201 215 249 231 267 278 247 233 227 221 217 211 207 201 202 201 202 202 203 202 209 213 199 192 189 192 195 199 202 202 195 182
168 176 217 201 202 150 79 249 199 195 187 168 145 183 230 225 248 278 251 240 229 224 222 214 211 205 201 203 203 202 201 200 202 209 208 196 185 182 179 177 175 173 170 165
166 217 275 249 146 138 147 232 185 192 202 176 184 218 228 245 260 272 259 244 232 224 222 220 210 207 205 204 206 206 196 198 202 204 204 197 187 181 175 173 174 173 171 171
117 170 240 168 128 158 199 221 219 204 206 201 216 226 229 237 242 256 243 222 224 222 223 220 212 209 209 207 207 207 202 201 203 203 202 198 195 187 185 186 185 182 180 180
189 203 223 171 173 198 187 198 199 208 208 215 219 226 223 241 241 246 227 208 216 225 220 218 211 211 211 210 206 206 207 204 208 205 204 202 202 197 197 197 196 195 198 202
129 209 197 192 198 202 188 191 214 224 212 214 224 233 237 241 244 223 220 196 221 218 217 218 215 212 217 212 207 208 208 206 208 211 209 207 208 207 206 206 207 209 216 224
221 331 96 215 202 203 209 201 191 187 214 235 224 229 233 242 231 225 228 221 217 222 223 223 224 219 215 217 211 209 211 209 208 212 214 212 214 215 215 216 219 223 231 237
217 174 168 200 201 208 211 217 217 232 219 215 221 232 238 244 241 236 225 236 236 226 224 223 226 223 218 218 215 212 211 213 213 211 214 218 216 220 225 230 233 236 242 249
219 184 192 202 208 212 214 207 210 230 213 210 223 226 237 217 217 224 226 233 236 241 238 227 220 223 222 221 220 217 216 215 216 216 217 221 222 222 224 227 234 243 251 259
286 189 175 195 203 211 213 213 214 218 202 208 211 211 209 201 202 254 261 236 227 234 235 225 222 227 230 224 224 224 221 221 219 218 220 223 227 229 230 232 234 243 253 260
254 197 202 193 190 180 182 179 178 183 192 192 196 213 219 232 248 263 253 239 236 247 231 226 225 235 237 232 229 228 225 222 223 226 224 226 228 232 234 236 240 244 252 258
221 188 171 164 170 166 169 180 180 185 194 200 216 224 245 246 239 249 253 265 253 267 234 213 231 238 225 233 233 232 232 230 223 226 227 229 232 234 237 238 242 247 252 260
177 130 141 140 158 158 166 174 178 177 196 219 231 225 238 248 238 253 247 252 252 266 275 230 221 230 237 258 251 234 231 229 227 224 231 232 232 234 237 240 240 243 251 259
107 120 132 142 150 150 156 166 175 184 204 241 265 262 245 245 243 249 256 273 255 236 282 273 230 228 232 250 242 232 230 227 222 222 226 231 233 234 236 236 232 234 232 177
121 107 121 124 136 144 148 154 157 156 150 153 134 72 73 242 246 237 235 254 225 214 222 251 270 236 227 225 220 218 217 219 216 218 220 221 221 223 224 218 184 153 142 138
87 106 126 120 113 118 119 120 120 122 110 99 89 83 83 73 67 138 139 173 200 210 193 198 181 173 191 199 203 204 203 206 203 202 202 199 189 168 153 145 142 142 143 155
72 100 104 103 100 101 100 107 107 106 109 104 73 64 62 46 52 111 131 125 96 340 153 138 155 180 173 175 176 176 184 170 174 163 150 144 141 143 151 153 160 161 137 119
88 96 115 118 112 106 106 101 88 81 80 49 45 55 47 65 62 67 100 127 128 116 106 114 142 151 159 165 153 148 148 145 146 149 161 189 200 191 170 157 145 132 135 135
82 87 89 89 85 80 101 77 41 32 57 319 292 267 144 134 135 89 95 130 178 160 139 152 153 152 153 159 162 162 164 163 163 166 178 174 163 155 149 143 139 143 143 144
68 68 67 65 58 45 12 343 290 305 308 235 220 202 178 157 146 139 138 125 128 102 101 141 176 169 167 168 163 163 163 166 168 158 167 160 151 146 142 144 143 143 141 139
60 58 57 50 46 54 51 0 295 310 291 260 218 201 204 203 209 214 205 173 148 120 76 87 128 180 185 183 179 178 172 169 165 163 156 149 145 146 146 146 145 143 139 135
54 59 57 55 52 44 39 30 21 45 113 215 213 209 203 215 230 202 191 177 189 190 215 160 103 105 155 165 171 168 164 161 156 154 151 147 148 149 149 146 142 139 136 132
62 65 62 50 39 31 28 28 30 31 54 115 207 220 220 226 208 196 195 197 196 184 193 204 197 199 196 195 171 161 159 159 159 155 152 151 151 148 145 143 140 137 132 128